Location: *
(50.9167°S, 179.4000°W)
Time: 20:22:26
(UTC+00:00)

CZ-2D R/B - Pass Details

Date: 03 March 2024
Orbit: 540 x 619 km, 98.0° (Epoch: 16 April)

Event Time Altitude Azimuth Distance (km) Brightness Sun altitude
Rises 16:48:00 0° 355° (N) 2,711 6.6 -7.5°
Reaches altitude 10° 16:50:13 10° 346° (NNW) 1,832 5.7 -7.2°
Maximum altitude 16:53:53 36° 277° (W) 899 3.9 -6.6°
Drops below altitude 10° 16:57:41 10° 209° (SSW) 1,890 5.9 -6.1°
Sets 17:00:00 0° 200° (SSW) 2,809 6.9 -5.7°
